{"data":{"norad_id":60271,"intl_designator":"2024-131S","name":"STARLINK-32164","alt_names":[],"object_type":"PAYLOAD","status":"ACTIVE","operator":null,"country":"US","launch_date":"2024-07-27","launch_site_code":"AFETR","launch_vehicle":null,"mission":null,"orbit_class":"UNKNOWN","rcs_meters":null,"size_class":null,"mass_kg":null,"dimensions":null,"purposes":["comms"],"wikipedia_slug":null,"has_3d_model":false,"image_url":null,"decayed_at":null,"tle_current":{"epoch":"2026-05-25T04:08:47.700384Z","epoch_age_seconds":66934,"freshness":"FRESH","line1":"1 60271U 24131S   26145.17277431  .00001377  00000+0  58596-4 0  9991","line2":"2 60271  53.1610  57.5196 0001210  82.0084 278.1054 15.30198293103320","mean_motion":15.30198293,"eccentricity":0.000121,"inclination_deg":53.161,"raan_deg":57.5196,"arg_perigee_deg":82.0084,"mean_anomaly_deg":278.1054,"bstar":5.8596e-5,"rev_number":10332,"period_min":94.105450684881,"perigee_km":474.39091000126,"apogee_km":476.04942243549,"semimajor_km":6853.3571662184,"source":"CELESTRAK","updated_at":"2026-05-25T13:38:19.201759Z"}}}